Winter Haven, FL

10:48 AM EST on January 24, 2017 (GMT -0500)
Winter Haven's-Gilbert

Weather History for KGIF - August, 2013

Change the Weather History Date:

Monday, August 26, 2013

  Actual Average Record
Temperature  
Mean Temperature 80 °F -  
Max Temperature 88 °F 92 °F 97 °F (1987)
Min Temperature 73 °F 72 °F 69 °F (1957)
Cooling Degree Days 14    
Growing Degree Days 30 (Base 50)    
Moisture  
Dew Point 73 °F    
Average Humidity 84    
Maximum Humidity 97    
Minimum Humidity 61    
Precipitation  
Precipitation 0.41 in - - ()
Sea Level Pressure  
Sea Level Pressure 30.10 in    
Wind  
Wind Speed 6 mph (NNE)    
Max Wind Speed 26 mph    
Max Gust Speed 39 mph    
Visibility 9 miles    
Events Rain    
Averages and records for this station are not official NWS values.
T = Trace of Precipitation, MM = Missing Value Source: NWS Daily Summary

Daily Weather History Graph

Daily Weather History Graph

Search for Another Location

Airport or City:

Trip Planner

Search our weather history database for the weather conditions in past years. The results will help you decide how hot, cold, wet, or windy it might be!

Date:

Astronomy

Aug. 26, 2013 Rise Set
Actual Time 7:02 AM EDT 7:54 PM EDT
Civil Twilight 6:38 AM EDT 8:18 PM EDT
Nautical Twilight 6:10 AM EDT 8:46 PM EDT
Astronomical Twilight 5:41 AM EDT 9:15 PM EDT
Moon 11:39 PM EDT (8/26) 12:28 PM EDT (8/26)
Length of Visible Light 13h 39m
Length of Day
12h 51m
Waning Gibbous, 67% of the Moon is Illuminated
Aug 26
Waning Gibbous
Aug 28
Last Quarter
Sep 5
New
Sep 12
First Quarter
Sep 19
Full

Hourly Weather History & Observations

Time (EDT) Temp. Heat Index Dew Point Humidity Pressure Visibility Wind Dir Wind Speed Gust Speed Precip Events Conditions
12:53 AM 75.9 °F - 73.0 °F 91% 30.16 in 10.0 mi NNE 5.8 mph - N/A   Clear
1:53 AM 75.9 °F - 73.0 °F 91% 30.14 in 10.0 mi North 6.9 mph - N/A   Clear
2:53 AM 75.0 °F - 73.0 °F 94% 30.12 in 10.0 mi North 6.9 mph - N/A   Clear
3:53 AM 75.0 °F - 73.0 °F 94% 30.11 in 10.0 mi NNE 5.8 mph - N/A   Clear
4:49 AM 75.2 °F - 73.4 °F 94% 30.11 in 10.0 mi NNE 5.8 mph - N/A   Partly Cloudy
4:53 AM 75.0 °F - 73.0 °F 94% 30.11 in 10.0 mi NNE 5.8 mph - N/A   Partly Cloudy
5:53 AM 73.9 °F - 73.0 °F 97% 30.11 in 9.0 mi NNE 5.8 mph - N/A   Mostly Cloudy
6:07 AM 73.9 °F - 73.0 °F 97% 30.12 in 10.0 mi NNE 6.9 mph - N/A   Scattered Clouds
6:53 AM 73.9 °F - 73.0 °F 97% 30.12 in 9.0 mi NNE 4.6 mph - N/A   Clear
7:53 AM 75.9 °F - 73.0 °F 91% 30.12 in 10.0 mi Calm Calm - N/A   Clear
8:53 AM 79.0 °F - 73.9 °F 84% 30.14 in 10.0 mi NNE 6.9 mph - N/A   Clear
9:53 AM 81.0 °F 86.2 °F 73.9 °F 79% 30.14 in 10.0 mi North 5.8 mph - N/A   Clear
10:53 AM 84.0 °F 90.2 °F 73.0 °F 69% 30.14 in 10.0 mi NE 9.2 mph - N/A   Scattered Clouds
11:05 AM 84.0 °F 90.2 °F 73.0 °F 69% 30.14 in 10.0 mi NE 10.4 mph - N/A   Mostly Cloudy
11:20 AM 84.0 °F 89.6 °F 72.0 °F 67% 30.14 in 10.0 mi North 6.9 mph - N/A   Scattered Clouds
11:35 AM 86.0 °F 92.2 °F 72.0 °F 63% 30.14 in 10.0 mi Variable 6.9 mph - N/A   Mostly Cloudy
11:50 AM 84.2 °F 89.6 °F 71.6 °F 66% 30.14 in 10.0 mi NNW 5.8 mph - N/A   Mostly Cloudy
11:53 AM 86.0 °F 92.2 °F 72.0 °F 63% 30.13 in 10.0 mi Variable 4.6 mph - N/A   Mostly Cloudy
12:53 PM 84.9 °F 89.4 °F 70.0 °F 61% 30.11 in 10.0 mi North 3.5 mph - N/A   Mostly Cloudy
1:53 PM 84.9 °F 89.4 °F 70.0 °F 61% 30.11 in 10.0 mi NNE 9.2 mph - N/A   Mostly Cloudy
2:53 PM 80.1 °F 85.1 °F 75.0 °F 85% 30.09 in 10.0 mi NE 9.2 mph - 0.01 in Rain Light Rain
3:53 PM 77.0 °F - 72.0 °F 84% 30.06 in 10.0 mi North 8.1 mph - 0.00 in   Partly Cloudy
4:53 PM 81.0 °F 86.7 °F 75.0 °F 82% 30.04 in 10.0 mi North 9.2 mph - N/A   Clear
5:53 PM 84.9 °F 92.1 °F 73.9 °F 69% 30.03 in 10.0 mi NNE 9.2 mph - N/A   Clear
6:38 PM 79.0 °F - 73.9 °F 84% 30.05 in 1.2 mi ENE 26.5 mph 39.1 mph 0.14 in Rain Heavy Rain
6:45 PM 77.0 °F - 72.0 °F 84% 30.04 in 0.5 mi SE 10.4 mph 39.1 mph 0.39 in Rain Heavy Rain
6:51 PM 78.8 °F - 73.4 °F 83% 30.05 in 2.0 mi Variable 5.8 mph 18.4 mph 0.39 in Rain Light Rain
6:53 PM 78.1 °F - 73.9 °F 87% 30.04 in 7.0 mi North 8.1 mph - 0.39 in Rain Light Rain
7:53 PM 78.1 °F - 73.9 °F 87% 30.06 in 10.0 mi Calm Calm - 0.00 in   Overcast
8:53 PM 78.1 °F - 75.9 °F 93% 30.07 in 10.0 mi Calm Calm - N/A   Mostly Cloudy
9:01 PM 78.1 °F - 75.9 °F 93% 30.08 in 10.0 mi Calm Calm - N/A   Overcast
9:12 PM 78.1 °F - 75.9 °F 93% 30.08 in 10.0 mi Calm Calm - N/A   Mostly Cloudy
9:53 PM 78.1 °F - 75.0 °F 90% 30.09 in 10.0 mi SSW 8.1 mph - N/A   Mostly Cloudy
10:25 PM 75.9 °F - 73.9 °F 94% 30.09 in 10.0 mi WSW 3.5 mph - N/A   Scattered Clouds
10:53 PM 75.9 °F - 73.0 °F 91% 30.09 in 10.0 mi Calm Calm - N/A   Partly Cloudy
11:53 PM 75.0 °F - 73.0 °F 94% 30.09 in 10.0 mi Calm Calm - 0.01 in   Partly Cloudy